Location: Unspecified
(44.0704°N, 88.6889°W)
Time: 12:10:02
(UTC+01:00)

Okean 3 - Visible Passes

Search period start: 14 November 2018 00:00
Search period end: 24 November 2018 00:00
Orbit: 578 x 601 km, 82.5° (Epoch: 13 November)

Date Brightness Start Highest point End Pass type
(mag) Time Alt. Az. Time Alt. Az. Time Alt. Az.
21 Nov 6.4 13:08:56 10° NE 13:11:06 13° ENE 13:13:15 10° E visible
22 Nov 6.2 13:16:11 10° NNE 13:19:18 19° ENE 13:22:23 10° ESE visible
23 Nov 5.7 13:23:46 10° NNE 13:27:27 27° ENE 13:31:06 10° SE visible
